Location: Brownlee
(50.7397°N, 106.0159°W)
Time: 07:45:08
(UTC+00:00)

Envisat - Pass Details

Date: 06 December 2022
Orbit: 763 x 765 km, 98.2° (Epoch: 04 February)

Event Time Altitude Azimuth Distance (km) Brightness Sun altitude
Rises 12:26:54 0° 8° (N) 3,247 6.2 -21.6°
Reaches altitude 10° 12:29:23 10° 359° (N) 2,316 5.4 -21.2°
Enters shadow 12:32:02 26° 336° (NNW) 1,495 4.2 -20.8°
